Regional Weather Roundup
Issued by NWS

Home | Current Version | Previous Version | Text Only | Print | Product List | Glossary On
Versions: 1 2 3 4 5 6 7 8 9 10 11 12 13 14 15 16 17 18 19 20 21 22 23 24 25 26 27 28 29 30 31 32 33 34 35 36 37 38 39 40 41 42 43 44 45 46 47 48 49 50
000
ASUS44 KLUB 250510
RWRTX
WEST TEXAS WEATHER ROUNDUP
NATIONAL WEATHER SERVICE LUBBOCK TX
1200 AM CDT MON MAY 25 2015

NOTE: "FAIR" INDICATES FEW OR NO CLOUDS BELOW 12,000 FEET WITH NO
SIGNIFICANT WEATHER AND/OR OBSTRUCTIONS TO VISIBILITY.

TXZ004-006>008-010-012-014-016-OKZ002-250600-
TEXAS PANHANDLE/OKLAHOMA PANHANDLE

CITY           SKY/WX    TMP DP  RH WIND       PRES   REMARKS
AMARILLO       MOCLDY    61  46  57 S9        29.83R
BORGER         PTCLDY    66  50  56 S13       29.78S
CANADIAN       CLEAR     67  64  88 SE17      29.77S
DALHART        PTCLDY    57  47  69 N6        29.84R
DUMAS          PTCLDY    59  49  69 SW9       29.81S
GUYMON         CLOUDY    58  50  75 N6        29.78S
HEREFORD       PTCLDY    57  47  69 MISG      29.84S
PAMPA          MOCLDY    61  58  88 SE10      29.81F
PERRYTON       PTCLDY    64  61  91 SE17      29.78S
$$

TXZ026-029-035-045-048-250600-
SOUTHERN PANHANDLE/SOUTH PLAINS/ROLLING PLAINS

CITY           SKY/WX    TMP DP  RH WIND       PRES   REMARKS
CHILDRESS      CLEAR     67  62  84 S14       29.81R
SEMINOLE       PTCLDY    57  42  57 S5        29.88S
LUBBOCK        CLEAR     66  42  41 S12       29.84S
PLAINVIEW      CLEAR     60  48  64 S9        29.83F
SNYDER         CLEAR     66  55  67 SE13      29.87S
$$

TXZ052-054-060>062-072-078-127-140-154-169-250600-
PERMIAN BASIN/CONCHO VALLEY/BIG COUNTRY/EDWARDS PLATEAU

CITY           SKY/WX    TMP DP  RH WIND       PRES   REMARKS
ABILENE        CLEAR     70  65  84 SE14      29.87R
BIG SPRING     CLEAR     71  49  46 SE10      29.89S
BRADY          CLEAR     70  68  94 SE8       29.90S
BROWNWOOD      CLEAR     70  66  88 SE10G16   29.89S
JUNCTION       CLEAR     71  65  81 E3        29.90R
MIDLAND        CLEAR     67  52  58 SE8       29.86S
ODESSA           N/A    N/A N/A N/A MISG      29.87R
SAN ANGELO     CLEAR     69  61  75 SE8       29.86S
SONORA         CLEAR     72  64  78 SE7       29.93S
SWEETWATER     CLEAR     69  62  76 SE10      29.90S
WINK           CLEAR     67  41  38 SE9       29.81F
$$

TXZ055-058-074-075-080-082-250600-
FAR WEST/SOUTHWEST MOUNTAINS/TRANS PECOS

CITY           SKY/WX    TMP DP  RH WIND       PRES   REMARKS
ALPINE         MOCLDY    67  32  26 SW3       29.96F
DRYDEN           N/A     75  58  55 SE9       29.83S
EL PASO        CLOUDY    76  18  11 W14G22    29.88R
FORT STOCKTON  CLEAR     70  50  49 SE12      29.85S
GUADALUPE PASS PTCLDY    65  17  15 W5        29.98R
MARFA          MOCLDY   N/A N/A N/A N7        29.94F
PECOS          CLEAR     61  48  62 CALM      29.81S
PRESIDIO       FAIR      77  32  19 NE10      29.77S
$$

TXZ014-016-019-021>030-083-250600
TEXAS TECH WEST TEXAS MESONET/TEXAS PANHANDLE/NORTHERN SOUTH PLAINS

CITY           SKY/WX    TMP DP  RH WIND       PRES   REMARKS
ABERNATHY 5ENE   N/A     56  48  73 S9        29.85F
AMARILLO 9NNE    N/A     62  45  55 S9        29.80F
AMARILLO 7SSE    N/A     62  42  47 S10       29.84S
AMHERST 1NE      N/A     58  43  58 S8        29.85S
BOOTLEG 11WNW    N/A     55  46  72 SW8       29.88S
CANADIAN 6E      N/A     63  62  96 E13       29.78S
CAPROCK CYN SP   N/A     65  46  50 SW12      29.82S
CHILDRESS 2NNE   N/A     67  62  82 S14       29.80S
CLARENDON 2WSW   N/A     60  51  70 S7        29.81S
CLAUDE 12SW      N/A     65  40  39 S5        29.83F
DIMMITT 2NE      N/A     53  47  78 S8        29.85S
FLOYDADA 2NNE    N/A     62  46  54 S13       29.84F
FRIONA 2NE       N/A     59  44  57 S10       29.85S
GOODLETT 3W      N/A     69  63  82 SE15      29.79S
HART 3N          N/A     59  46  61 S7        29.84S
HEREFORD 2NW     N/A     60  42  50 S8        29.84S
MCLEAN 1E        N/A     61  59  92 SE8       29.81S
MEMPHIS 1NE      N/A     63  55  76 CALM      29.80S
MULESHOE 2SSW    N/A     55  44  66 S9        29.84S
OLTON 6S         N/A     58  44  60 S12       29.84S
PALO DURO SP     N/A     66  40  38 S8        29.84S
PAMPA 2E         N/A     60  58  93 SE10      29.81S
PLAINVIEW 1S     N/A     61  47  59 S10       29.83F
TULIA 2ENE       N/A     57  47  68 S7        29.84S
UMBARGER 3NNE    N/A     60  44  56 S10       29.84F
$$

TXZ033>036-039>041-045>048-250600
TEXAS TECH WEST TEXAS MESONET/SOUTH PLAINS

CITY           SKY/WX    TMP DP  RH WIND       PRES   REMARKS
AIKEN 3WSW       N/A     59  50  72 S10       29.85F
ANDREWS 2NE      N/A     63  42  46 SE7       29.87S
ANTON 6SSW       N/A     59  46  61 S10       29.85S
BROWNFIELD 2S    N/A     62  44  52 S10       29.86S
DENVR CTY 7WNW   N/A     58  39  49 S9        29.87S
GAIL 2ESE        N/A     65  42  41 SE10      29.84F
LAMESA 2SE       N/A     63  47  55 SE10      29.86S
LEVELLAND 4S     N/A     59  42  53 S8        29.86S
LUBBOCK 3WNW     N/A     69  38  31 S10       29.85S
MORTON 1ENE      N/A     58  41  52 S10       29.86R
ODONNELL 1N      N/A     65  40  39 S9        29.85F
PLAINS 3N        N/A     58  40  51 S10       29.87S
RALLS 1SE        N/A     60  49  67 S9        29.86S
REESE CENTER     N/A     60  45  57 S10       29.85S
SEAGRAVES 1SW    N/A     62  42  48 S9        29.86S
SEMINOLE 2NNE    N/A     63  40  44 S8        29.86F
SLATON 2NE       N/A     60  49  67 S12       29.85S
SNYDER 3E        N/A     64  57  77 SE9       29.85F
SUNDOWN 8SW      N/A     57  41  55 S10       29.86S
TAHOKA 3NNE      N/A     60  48  63 S8        29.85S
WOLFFORTH 6SSW   N/A     63  45  51 S9        29.86S
$$

TXZ031-032-036>038-042>044-250600-
TEXAS TECH WEST TEXAS MESONET/ROLLING PLAINS

CITY           SKY/WX    TMP DP  RH WIND       PRES   REMARKS
ASPERMONT 3NE    N/A     68  63  84 SE7       29.83S
FLUVANNA 3WNW    N/A     63  46  54 SE12      29.85F
GRAHAM 5SSW      N/A     72  33  23 S16       29.84S
GUTHRIE 10WSW    N/A     64  60  86 SE14      29.81R
HASKELL 1NW      N/A     70  63  78 SE9       29.83S
JAYTON 1SSE      N/A     64  58  80 SE8       29.83S
KNOX CITY 3NW    N/A     70  64  80 SE14      29.82S
LK A HENRY 1NW   N/A     64  46  52 S5        29.83F
NORTHFIELD 1S    N/A     65  59  82 S13       29.80S
ODELL 4ENE       N/A     69  65  87 SE17      29.81S
PADUCAH 10SW     N/A     65  62  88 S9        29.82S
POST 1NE         N/A     68  38  33 S7        29.83S
RRING SPRGS 3N   N/A     60  49  67 S7        29.83F
SEYMOUR 3NW      N/A     70  64  80 SE13      29.83S
SPUR 1W          N/A     61  48  63 S5        29.82S
WEINERT 2NNE     N/A     69  65  88 S12       29.83S
WHITE RVR 6NE    N/A     66  43  43 SW3       29.84S
$$

TXZ052-054-060>062-072-078-127-140-154-169-250600-
TEXAS TECH WEST TEXAS MESONET/PERMIAN BASIN/
CONCHO VALLEY/BIG COUNTRY/EDWARDS PLATEAU

CITY           SKY/WX    TMP DP  RH WIND       PRES   REMARKS
COYANOSA 2N      N/A     67  49  50 E9        29.82F
JUNCTION 1SSW    N/A     68  65  91 S1        29.90F
MERTZON 3NNE     N/A     69  61  77 S8        29.88F
SAN ANGELO 7NW   N/A     69  59  71 SE5       29.87S
STRLNG CT 4WSW   N/A     71  57  60 SE10      29.88S
ST LAWRNCE 5SW   N/A     65  55  69 SE9       29.87S
SWEETWATR 11SW   N/A     68  61  78 SE10      29.89S
WALL 1E          N/A     71  61  70 SE14      29.87S
$$

TXZ055-058-074-075-080-082-250600-
TEXAS TECH WEST TEXAS MESONET/FAR WEST/SOUTHWEST MOUNTAINS/TRANS PECOS

CITY           SKY/WX    TMP DP  RH WIND       PRES   REMARKS
PRSMN GAP BBNP   N/A     73  53  48 N15       29.82R
$$



USA.gov is the U.S. government's official web portal to all federal, state and local government web resources and services.